Weather History for Billings, MT

Change the Weather History Date:

Saturday, May 25, 2013

  Actual Average Record
Temperature  
Mean Temperature 60 °F 58 °F  
Max Temperature 74 °F 70 °F 88 °F (1983)
Min Temperature 46 °F 46 °F 31 °F (2012)
Degree Days  
Heating Degree Days 5 7  
Month to date heating degree days 199 269  
Since 1 July heating degree days 6291 6646  
Cooling Degree Days 0 1  
Month to date cooling degree days 27 7  
Year to date cooling degree days 27 8  
Growing Degree Days 10 (Base 50)    
Moisture  
Dew Point 38 °F    
Average Humidity 49    
Maximum Humidity 71    
Minimum Humidity 27    
Precipitation  
Precipitation T in 0.08 in 0.81 in (1980)
Month to date precipitation 2.03 1.73  
Year to date precipitation 4.19 5.41  
Snow  
Snow 0.00 in 0.10 in 2.20 in (2012)
Month to date snowfall T 2.0  
Since 1 July snowfall 40.4 55.0  
Snow Depth 0.00 in    
Sea Level Pressure  
Sea Level Pressure 29.84 in    
Wind  
Wind Speed 7 mph (North)    
Max Wind Speed 21 mph    
Max Gust Speed 26 mph    
Visibility 10 miles    
Events      
T = Trace of Precipitation, MM = Missing Value Source: NWS Daily Summary

Daily Weather History Graph

Daily Weather History Graph

Search for Another Location

Airport:

Trip Planner

Search our weather history database for the weather conditions in past years. The results will help you decide how hot, cold, wet, or windy it might be!

Date:

Astronomy

May. 25, 2013 Rise Set
Actual Time 5:32 AM MDT 8:50 PM MDT
Civil Twilight 4:56 AM MDT 9:26 PM MDT
Nautical Twilight 4:08 AM MDT 10:14 PM MDT
Astronomical Twilight 3:09 AM MDT 11:14 PM MDT
Moon 9:41 PM MDT (5/25) 6:03 AM MDT (5/25)
Length of Visible Light 16h 30m
Length of Day
15h 18m
Waxing Gibbous, 99% of the Moon is Illuminated
May 25
Waxing Gibbous
May 31
Last Quarter
Jun 8
New
Jun 16
First Quarter
Jun 23
Full

Hourly Weather History & Observations

Time (MDT) Temp. Dew Point Humidity Pressure Visibility Wind Dir Wind Speed Gust Speed Precip Events Conditions
12:53 AM 54.0 °F 34.0 °F 47% 29.87 in 10.0 mi NNE 5.8 mph - N/A   Clear
1:53 AM 53.1 °F 35.1 °F 50% 29.87 in 10.0 mi NNW 5.8 mph - N/A   Clear
2:53 AM 51.1 °F 35.1 °F 54% 29.86 in 10.0 mi North 4.6 mph - N/A   Clear
3:53 AM 48.9 °F 35.1 °F 59% 29.85 in 10.0 mi North 5.8 mph - N/A   Clear
4:53 AM 48.0 °F 34.0 °F 58% 29.86 in 10.0 mi North 4.6 mph - N/A   Partly Cloudy
5:53 AM 46.9 °F 37.9 °F 71% 29.87 in 10.0 mi SW 8.1 mph - N/A   Partly Cloudy
6:53 AM 50.0 °F 39.0 °F 66% 29.88 in 10.0 mi WSW 4.6 mph - N/A   Partly Cloudy
7:53 AM 55.0 °F 37.9 °F 53% 29.88 in 10.0 mi Variable 3.5 mph - N/A   Partly Cloudy
8:53 AM 59.0 °F 37.9 °F 46% 29.88 in 10.0 mi NNW 6.9 mph - N/A   Partly Cloudy
9:53 AM 63.0 °F 39.9 °F 43% 29.86 in 10.0 mi West 4.6 mph - N/A   Partly Cloudy
10:53 AM 66.0 °F 37.9 °F 36% 29.84 in 10.0 mi Calm Calm - N/A   Partly Cloudy
11:53 AM 69.1 °F 37.9 °F 32% 29.82 in 10.0 mi Variable 4.6 mph - N/A   Partly Cloudy
12:53 PM 72.0 °F 39.0 °F 30% 29.80 in 10.0 mi NE 4.6 mph - N/A   Partly Cloudy
1:53 PM 73.0 °F 37.9 °F 28% 29.78 in 10.0 mi NE 9.2 mph - N/A   Partly Cloudy
2:53 PM 73.9 °F 39.0 °F 28% 29.78 in 10.0 mi North 9.2 mph - N/A   Scattered Clouds
3:53 PM 73.9 °F 37.9 °F 27% 29.79 in 10.0 mi North 9.2 mph - N/A   Mostly Cloudy
4:53 PM 73.9 °F 39.0 °F 28% 29.79 in 10.0 mi Variable 6.9 mph 17.3 mph N/A   Mostly Cloudy
5:53 PM 72.0 °F 41.0 °F 33% 29.80 in 10.0 mi NNE 12.7 mph - N/A   Mostly Cloudy
6:53 PM 69.1 °F 39.0 °F 33% 29.82 in 10.0 mi North 13.8 mph 19.6 mph 0.00 in   Scattered Clouds
7:53 PM 68.0 °F 39.0 °F 35% 29.81 in 10.0 mi North 12.7 mph - N/A   Partly Cloudy
8:53 PM 64.9 °F 39.9 °F 40% 29.81 in 10.0 mi North 12.7 mph - N/A   Scattered Clouds
9:53 PM 64.0 °F 37.9 °F 38% 29.83 in 10.0 mi North 10.4 mph - N/A   Mostly Cloudy
10:53 PM 63.0 °F 39.0 °F 41% 29.86 in 10.0 mi North 4.6 mph - N/A   Mostly Cloudy
11:53 PM 61.0 °F 39.9 °F 46% 29.86 in 10.0 mi East 9.2 mph - N/A   Mostly Cloudy